RH
89 95 95 94 96 96 94 88 83 90 87 72 63 57 61 64 60 57 70 72 73 69
91 91 93 95 95 95 95 92 92 88 87 84 71 64 61 67 61 61 66 70 67 67
92 92 92 95 94 90 91 89 91 92 89 84 78 71 66 64 63 65 63 58 64 67
90 90 92 93 94 93 90 89 90 90 91 88 85 77 76 72 65 61 64 63 68 66
91 90 91 94 92 89 90 90 91 91 92 89 84 84 83 78 72 69 67 64 68 66
95 94 94 94 91 90 89 89 91 89 93 87 84 83 75 74 72 70 67 66 72 71
96 95 95 93 93 93 89 88 88 89 88 85 84 78 76 68 73 76 70 68 68 68
96 96 94 94 94 93 94 91 91 92 91 90 88 78 85 80 82 81 76 68 60 59
97 96 96 96 94 92 92 94 94 95 95 93 85 77 71 67 76 68 65 69 62 56
98 97 96 96 96 93 94 93 93 92 92 92 90 76 71 67 64 67 71 70 65 59
95 96 95 94 93 92 93 93 94 93 92 93 90 77 71 67 72 80 78 73 67 65
94 94 94 94 93 93 94 94 94 92 93 94 91 81 76 70 90 89 85 71 69 69
92 95 94 94 94 93 95 92 90 91 91 91 85 82 75 72 84 92 89 84 76 68
92 94 93 94 95 96 96 94 94 92 90 91 90 94 79 68 75 87 89 88 84 74
Wind_Speed
1 1 1 2 3 2 3 3 3 3 4 5 4 4 4 3 2 3 3 3 3 2
3 1 1 2 1 0 1 1 3 5 5 5 5 5 5 3 4 1 2 4 4 2
4 3 2 3 2 2 1 1 1 2 3 5 6 6 6 5 5 5 3 3 4 4
1 3 3 2 3 4 2 1 1 1 3 4 4 5 5 5 6 5 5 5 5 6
1 1 1 2 3 1 3 2 2 2 3 3 4 4 4 5 6 6 6 7 6 8
2 1 2 3 2 2 2 2 2 2 3 3 4 5 5 6 6 6 7 7 7 8
3 3 3 2 1 2 2 3 4 3 4 5 5 7 7 8 7 7 8 9 9 9
6 5 4 4 3 3 3 4 4 4 4 4 5 6 7 9 8 9 10 10 11 11
4 4 4 4 4 4 5 4 4 5 4 5 6 14 17 15 8 10 11 11 10 10
3 4 4 3 3 4 5 4 4 5 5 6 6 17 18 19 10 9 8 10 11 11
3 4 4 4 4 4 4 5 5 5 5 5 7 18 18 18 9 7 8 9 11 12
3 4 4 5 5 5 4 5 4 5 6 6 8 18 19 16 4 6 8 11 11 12
4 4 5 5 5 4 4 7 5 7 6 12 10 17 21 17 7 6 7 10 13 22
4 4 6 6 4 4 5 6 6 8 8 8 10 11 20 20 10 7 9 9 10 9
Wind_Direction
84 104 58 37 21 5 11 13 28 357 346 347 349 342 336 311 347 18 337 306 311 313
166 15 100 99 40 222 75 346 14 339 330 332 338 339 329 315 315 349 321 307 321 316
182 181 200 159 225 258 325 144 340 318 334 333 329 327 331 326 333 341 311 308 309 301
215 176 183 216 228 194 198 237 249 297 314 301 303 313 323 317 306 312 322 313 302 295
180 171 208 246 253 272 201 224 211 248 268 280 295 302 310 311 309 306 303 299 295 291
278 220 262 255 255 313 323 304 272 269 265 284 296 300 293 286 283 282 283 283 282 281
302 270 236 270 318 327 313 302 299 288 286 283 282 282 282 283 279 272 277 279 278 276
359 11 11 341 305 290 280 283 294 287 278 278 278 274 259 256 260 270 277 275 276 275
354 356 337 339 337 320 302 285 267 260 259 271 274 279 283 287 279 279 281 282 284 290
353 340 329 317 316 303 293 288 283 277 265 267 264 284 287 286 284 288 290 288 290 294
338 312 312 313 300 294 285 278 277 274 265 262 272 288 293 293 294 290 288 288 285 282
302 298 293 290 287 281 282 280 271 273 274 267 273 290 293 292 273 274 276 279 279 275
284 276 281 275 278 275 265 277 277 279 271 275 288 291 294 293 271 258 261 262 259 271
291 280 269 267 259 267 275 277 273 274 272 265 266 270 288 289 278 258 258 256 261 261